Location: Arras
(51.0560°N, 12.9043°E)
Time: 06:31:45
(UTC+00:00)

Daily predictions for brighter satellites

Satellite Brightness Start Highest point End
(mag) Time Altitude Azimuth Time Altitude Azimuth Time Altitude Azimuth
Cosmos 2297 Rocket 2.5 16:18:38 10° NNW 16:24:08 47° NE 16:29:35 10° SE
Cosmos 2369 Rocket 3.5 16:18:56 10° WSW 16:24:17 40° NW 16:29:40 10° NNE
ERS-2 2.7 16:21:07 10° NNE 16:24:32 37° E 16:27:56 10° SSE
Meteor 1-11 4.3 16:19:31 10° N 16:25:16 75° ENE 16:31:02 10° SSE
Aureole 3 Rocket 4.4 16:22:28 10° SE 16:25:55 24° E 16:30:17 10° NNE
COSMOS 2487 3.9 16:24:22 10° NW 16:27:40 43° WSW 16:30:56 10° S
Cosmos 1340 3.6 16:25:04 10° N 16:28:20 27° ENE 16:31:34 10° SE
COSMO-SKYMED 1 3.7 16:26:52 10° NE 16:30:25 24° E 16:33:56 10° SSE
CORIOLIS 4.2 16:27:05 10° SSE 16:32:26 86° ENE 16:37:50 10° NNW
H-2A R/B 2.1 16:28:24 10° NNE 16:32:37 79° WNW 16:36:43 10° SSW
FengYun 1-2 T 4.3 16:27:56 10° SSE 16:33:34 71° ENE 16:39:11 10° NNW
Cosmos 1110 Rocket 4.1 16:29:42 10° S 16:34:50 58° ESE 16:39:58 10° NNE
NOSS 2-2 (C) 4.4 16:31:30 10° NW 16:36:44 78° NE 16:44:02 10° SE
Timation 2 Rocket 4.2 16:32:35 10° NNW 16:39:12 85° ENE 16:46:01 10° SSE
Lacrosse 5 2.5 16:34:30 10° W 16:39:24 47° NNW 16:44:17 10° ENE
Cosmos 1825 Rocket 3.6 16:35:27 10° N 16:39:56 87° ENE 16:44:22 10° S
Cosmos 1486 Rocket 4.4 16:36:51 10° NNW 16:41:57 42° ENE 16:46:59 10° SE
ADEOS Rocket 3.5 16:36:16 10° NNE 16:42:35 78° WNW 16:49:35 10° SSW
Envisat 4.2 16:39:02 10° S 16:43:55 48° W 16:48:51 10° NNW
Cosmos 292 Rocket 4.0 16:39:31 10° S 16:44:07 47° ESE 16:48:46 10° NE
Aureole 3 3.8 16:42:11 10° SSE 16:44:41 23° E 16:47:07 10° NE
Meteor 2-21 Rocket 4.4 16:38:29 10° N 16:44:43 78° E 16:50:51 10° SSE
Okean O Rocket 2.2 16:41:38 10° S 16:45:57 61° WSW 16:50:17 10° NNW
FALCON 9 DEB 3.3 16:42:40 10° W 16:46:04 60° N 16:48:52 14° E
YAOGAN 1 3.4 16:44:10 10° ESE 16:47:53 29° ENE 16:51:37 10° N
ERBS 3.6 16:45:26 10° WNW 16:48:27 30° N 16:51:09 12° NE
USA 281 3.8 16:42:13 10° SSE 16:48:42 62° WSW 16:55:14 10° NNW
FALCON 9 DEB 4.2 16:46:12 10° SSW 16:49:02 28° SE 16:51:05 15° E
FALCON 9 DEB 4.0 16:50:23 10° SSW 16:53:15 31° SSE 16:55:10 17° E
CZ-2C R/B 3.7 16:48:55 10° SE 16:54:13 39° ENE 16:59:23 10° N
Feng Yun 1-1 Rocket 4.4 16:48:20 10° SSE 16:54:15 80° ENE 17:00:13 10° NNW
Cosmos 2219 3.2 16:48:43 10° NNW 16:54:31 75° ENE 17:00:16 10° SE
SMAP 4.1 16:50:20 10° S 16:54:52 52° W 16:59:27 10° NNW
Cosmos 1455 3.9 16:54:49 10° ESE 16:56:10 14° ESE 16:56:10 14° ESE
Cosmos 1726 Rocket 3.5 16:53:44 10° S 16:58:03 67° E 17:02:26 10° NNE
Cosmos 1943 Rocket 4.3 16:54:33 10° W 16:58:35 20° NW 17:02:38 10° NNE
Cosmos 1553 Rocket 4.3 16:55:10 10° SSE 17:01:05 43° E 17:06:57 10° NNE
USA 307 2.9 16:57:07 10° WNW 17:01:26 75° NNE 17:04:41 17° ESE
Cosmos 2082 4.1 16:57:36 10° NNW 17:03:08 45° NE 17:08:36 10° ESE
Meteor 2-10 Rocket 4.3 16:59:34 10° SSE 17:04:01 28° E 17:08:22 10° NNE
CZ-4B R/B 1.3 17:01:21 10° NNE 17:04:38 81° WNW 17:07:47 10° SSW
Cosmos 2228 3.1 17:00:52 10° SSW 17:05:07 81° W 17:09:27 10° N
FALCON 9 DEB 3.8 17:02:12 10° SW 17:05:13 35° SSE 17:06:44 22° E
Cosmos 1939 Rocket 2.7 17:01:47 10° SSE 17:05:44 76° ENE 17:09:39 10° N
USA 308 2.9 17:01:58 10° WNW 17:06:16 77° NNE 17:09:20 19° ESE
ATLAS 5 CENTAUR R/B 3.4 17:05:14 10° WNW 17:08:56 25° NNW 17:13:09 10° NE
CZ-4 R/B 4.4 17:06:09 10° SSE 17:10:17 68° ENE 17:14:27 10° N
Helios 1A Rocket 2.9 17:08:49 10° SSE 17:12:54 66° ENE 17:16:59 10° N
Cosmos 1606 Rocket 3.8 17:09:20 10° SSW 17:13:41 71° WNW 17:18:08 10° N
GENESIS II 4.3 17:12:43 10° SW 17:16:47 79° NW 17:20:07 15° NE
FALCON 9 DEB 3.4 17:13:44 10° SW 17:16:49 44° SSE 17:17:56 30° E
ARGOS 3.8 17:13:09 11° ESE 17:17:42 34° ENE 17:22:33 10° N
SKYMED 2 3.5 17:14:25 10° NNE 17:18:46 66° ESE 17:23:05 10° S
Okean-O 2.5 17:14:58 10° SSE 17:19:22 68° ENE 17:23:48 10° N
Cosmos 1689 Rocket 1.9 17:17:10 10° NNE 17:20:03 62° ESE 17:22:54 10° S
Cosmos 2151 4.4 17:17:01 10° NNE 17:19:28 19° NE 17:19:28 19° NE
SL-08 R/B 4.4 17:14:39 10° N 17:20:51 74° ENE 17:26:58 10° SSE
Cosmos 1656 3.8 17:17:26 10° S 17:22:47 50° ESE 17:28:15 10° NE
Cosmos 1745 Rocket 4.0 17:17:49 10° N 17:24:02 59° ENE 17:30:18 10° SSE
Cosmos 1400 Rocket 2.7 17:21:17 10° S 17:25:24 78° E 17:29:30 10° NNE
PSLV R/B 3.9 17:22:52 10° NNE 17:27:03 66° ESE 17:31:10 10° S
H-2A R/B 2.3 17:22:00 10° SE 17:27:13 49° ENE 17:32:28 10° N
Ariane Rocket 4.1 17:27:38 23° ENE 17:28:06 23° ENE 17:32:02 10° N
Cosmos 2227 Rocket 2.3 17:22:46 10° NNW 17:28:27 83° WSW 17:34:07 10° SSE
GEOS 3 Rocket 3.7 17:24:32 17° ESE 17:28:43 69° NE 17:34:06 10° NW
Cosmos 2058 2.9 17:24:50 10° N 17:28:53 56° ENE 17:32:55 10° SSE
CZ-4 R/B 1.1 17:25:49 10° SSE 17:29:42 77° ENE 17:33:34 10° N
Cosmos 1892 2.6 17:26:20 10° N 17:30:15 80° E 17:34:08 10° SSE
Cosmos 2263 Rocket 3.2 17:29:08 10° NNW 17:34:03 28° NE 17:35:34 25° ENE
Cosmos 1408 2.5 17:30:50 10° N 17:34:27 58° ENE 17:37:14 16° SSE
CSL-04 Rocket 3.7 17:30:05 10° SE 17:35:31 58° ENE 17:40:56 10° N
BREEZE-M R/B 3.5 17:28:33 10° W 17:36:09 69° S 17:37:08 39° ESE
Cosmos 1386 Rocket 4.5 17:31:05 10° N 17:37:30 70° ENE 17:43:50 10° SSE
NOSS 3-4 (A) 4.0 17:33:51 10° NW 17:40:24 51° NNE 17:44:11 28° E
NOSS 3-4 (C) 4.0 17:33:57 10° NW 17:40:30 51° NNE 17:44:16 28° E
CZ-4C R/B 3.6 17:35:03 10° NW 17:40:59 35° NNE 17:44:25 24° ENE
Meteor 2-1 Rocket 4.2 17:36:58 10° S 17:42:17 52° E 17:47:39 10° NNE
Cosmos 1300 4.2 17:40:16 10° SW 17:43:51 38° WNW 17:47:28 10° N
Cosmos 2058 Rocket 3.5 17:42:37 10° SSW 17:47:05 65° WNW 17:51:36 10° N
Cosmos 1697 Rocket 3.0 17:42:07 10° S 17:47:23 43° ESE 17:49:37 29° ENE
SL-4 R/B 1.6 17:44:50 10° W 17:48:25 90° SSW 17:49:04 60° ESE
SeaSat 1 2.5 17:46:28 33° ESE 17:48:30 57° NE 17:53:21 10° NNW
CZ-2D R/B 4.1 17:45:02 10° S 17:48:44 49° W 17:52:28 10° NNW
Cosmos 1346 Rocket 2.8 17:45:10 10° NNW 17:49:11 85° W 17:53:11 10° S
CRYOSAT 2 4.3 17:46:12 10° N 17:51:02 61° E 17:55:51 10° S
Cosmos 1825 2.1 17:47:41 10° N 17:51:28 60° ENE 17:51:38 59° E
USA 305 3.0 17:47:50 10° WNW 17:52:08 70° SSW 17:53:27 42° SE
NOSS 3-3 (A) 4.2 17:46:40 10° S 17:52:10 44° ESE 17:54:18 33° ENE
NOSS 3-3 (C) 4.2 17:46:46 10° S 17:52:18 44° ESE 17:54:24 33° ENE
Cosmos 1709 Rocket 4.0 17:47:31 10° N 17:53:50 58° ENE 17:59:42 12° SSE
USA 215 3.4 17:51:39 31° E 17:54:52 63° NNE 18:01:19 10° WNW
Cosmos 44 3.7 17:51:28 10° WSW 17:55:59 59° NW 17:59:04 21° NNE
Cosmos 1315 Rocket 2.7 17:52:39 10° S 17:56:20 59° ESE 17:56:20 59° ESE
SJ-11-01 4.1 17:53:47 10° SSE 17:58:27 84° ENE 18:03:10 10° NNW
USA 306 3.1 17:54:15 10° WNW 17:58:31 65° SSW 17:59:35 46° SSE
BREEZE-M R/B 3.8 17:58:13 10° W 18:02:21 72° S 18:05:18 36° ESE
ATLAS 2AS CENTAUR R/B 3.1 17:55:04 10° NW 18:02:37 55° NE 18:05:17 37° E
Cosmos 968 Rocket 4.2 17:58:35 10° NNW 18:03:40 52° WSW 18:08:40 10° S
SJ 16-02 3.6 18:03:15 10° N 18:04:08 13° NNE 18:04:08 13° NNE
HJ-1C 3.9 18:07:27 53° NNW 18:07:27 53° NNW 18:10:07 10° NNW
COSMO-SKYMED 1 3.7 18:02:37 10° N 18:06:46 44° WNW 18:10:54 10° SW
MOS 1 Rocket 3.2 18:03:00 10° NNE 18:07:38 71° ESE 18:12:33 10° S
Cosmos 2297 Rocket 3.6 18:02:55 10° NW 18:08:06 37° WSW 18:13:15 10° S
Cosmos 1076 Rocket 3.5 18:04:53 10° NNW 18:09:09 79° W 18:11:35 25° S
Cosmos 1980 Rocket 3.5 18:05:01 10° S 18:07:19 22° SSE 18:07:19 22° SSE
COSMOS 2455 4.5 18:06:14 10° NNW 18:10:30 19° NNE 18:12:00 18° NNE
Cosmos 1777 Rocket 4.2 18:05:48 10° NNW 18:10:51 48° ENE 18:10:51 48° ENE
IRS-1A Rocket 4.4 18:10:35 47° ENE 18:10:57 48° ENE 18:16:14 10° N
Cosmos 883 Rocket 4.4 18:05:59 10° S 18:12:02 63° E 18:18:06 10° NNE
CSL-04 Debris 4.4 18:10:35 10° S 18:16:00 70° WSW 18:21:30 10° NNW
Cosmos 2315 Rocket 4.0 18:10:03 10° SSE 18:16:05 56° E 18:22:08 10° NNE
S3M 4.0 18:10:30 10° SSW 18:16:37 81° W 18:22:51 10° N
MOS 1 4.4 18:18:02 50° ENE 18:18:06 50° ENE 18:23:34 10° N
Resurs 01 Rocket 4.1 18:24:28 10° NNE 18:24:28 10° NNE 18:24:34 10° NNE
MetOp-A 4.4 18:22:01 49° NE 18:22:01 49° NE 18:26:41 10° N
Cosmos 2227 4.3 18:16:10 10° NNW 18:21:42 52° NE 18:21:43 52° NE
Lacrosse 5 2.3 18:18:13 10° WNW 18:23:07 47° NNE 18:23:30 46° NNE
FALCON 9 DEB 4.4 18:19:45 10° WNW 18:22:07 41° WNW 18:22:07 41° WNW
YAOGAN 1 4.0 18:19:51 10° SSW 18:23:53 37° W 18:27:57 10° NNW
ERBS 4.3 18:22:12 10° NW 18:24:02 25° NNW 18:24:02 25° NNW
Cosmos 2360 4.1 18:20:34 10° SSW 18:26:13 64° ESE 18:26:15 64° ESE
Cosmos 1812 Rocket 4.0 18:27:04 10° SSW 18:35:44 11° N 18:35:52 10° N
Cosmos 1455 3.4 18:28:35 10° SSW 18:31:13 38° SW 18:31:13 38° SW
CZ-2C R/B 4.4 18:28:34 10° SSW 18:34:02 42° W 18:39:23 10° NNW
Meteor 2-3 Rocket 3.8 18:29:34 10° N 18:34:43 60° NE 18:34:43 60° NE
USA 307 4.1 18:37:20 10° WNW 18:40:52 37° SW 18:40:52 37° SW
Meteor 2-10 Rocket 4.5 18:40:49 10° SW 18:45:53 46° WNW 18:50:49 10° N
USA 308 4.3 18:42:11 10° WNW 18:45:31 34° WSW 18:45:31 34° WSW
Cosmos 2278 Rocket 4.4 18:51:30 10° N 18:53:39 13° NNE 18:53:39 13° NNE
ATLAS 5 CENTAUR R/B 3.7 18:51:25 10° NW 18:55:01 21° N 18:55:01 21° N
ARGOS 4.1 18:54:41 22° SSW 18:57:50 46° W 19:03:05 10° NNW
Cosmos 2369 3.9 18:57:28 10° SW 19:03:10 69° WNW 19:03:10 69° WNW
Ariane Rocket 3.7 19:07:50 50° NW 19:07:50 50° NW 19:11:44 10° NNW
H-2A R/B 3.8 19:02:04 10° SSW 19:06:50 31° W 19:11:40 10° NNW
Cosmos 1844 Rocket 4.3 19:02:19 10° NNW 19:05:18 25° N 19:05:18 25° N
Cosmos 2263 Rocket 2.8 19:12:50 10° NNW 19:17:16 54° NW 19:17:16 54° NW
SeaSat 1 4.1 19:26:16 28° WSW 19:26:17 28° WSW 19:30:31 10° NW
CZ-4C R/B 3.0 19:23:36 10° NW 19:29:36 67° NNW 19:29:36 67° NNW
Cosmos 1697 Rocket 3.8 19:26:07 10° WSW 19:31:25 41° NW 19:31:25 41° NW
NOSS 3-4 (A) 4.1 19:24:46 10° NW 19:31:34 58° SW 19:31:39 58° SW
NOSS 3-4 (C) 4.1 19:24:53 10° NW 19:31:41 58° SW 19:31:43 58° SW
USA 215 3.6 19:39:00 59° W 19:39:00 59° W 19:44:26 10° WNW
SJ 16-02 4.3 19:40:48 10° NNW 19:41:07 12° NNW 19:41:07 12° NNW
ATLAS 2AS CENTAUR R/B 3.4 19:46:26 10° NW 19:52:43 50° W 19:52:43 50° W
Lacrosse 5 4.4 20:01:22 10° WNW 20:02:41 18° WNW 20:02:41 18° WNW
